Weather in Kobrin

Belarus     52˚12′31″N   24˚21′15″E
temp.,
°C
wind,
m/s
gust,
m/s
humid.,
%
clouds,
%
prec.,
mm/h
press.,
hPa
HPBL,
m
2 december, wed
wed200:00−3˚ese47830 0.0 1030248
03:00−4˚ese36840 0.0 1030209
06:00−5˚e36930 0.0 1029136
09:00−6˚e35930 0.0 1029128
12:00−3˚e36860 0.0 1029277
15:00−2˚e35893 0.0 1026312
18:00−3˚ese469657 0.0 1025274
21:00−2˚ese469178 0.0 1024482
3 december, thu
thu300:00−2˚se4789100 0.0 1024530
03:00−2˚sse4788100 0.1 1022542
06:00−2˚sse5789100 0.1 1021605
09:00−1˚se6985100 0.1 1020684
12:00se6118449 0.0 1019623
15:00se6118652 0.0 1018583
18:00−1˚se7149067 0.0 1016547
21:00+1˚se8138477 0.0 1016642
4 december, fri
fri400:00se7148782 0.0 1015572
03:00se7158959 0.0 1014538
06:00+2˚se8148889 0.0 1012631
09:00+2˚se8149295 0.0 1012633
12:00+2˚se81387100 0.0 1012665
15:00+3˚se81387100 0.0 1011703
18:00+4˚se71688100 0.0 1011687
21:00+5˚se7178879 0.0 1011559
5 december, sat
sat500:00+5˚se6169123 0.0 1012538
03:00+5˚se7169152 0.0 1013471
06:00+5˚se7169244 0.0 1013506
09:00+6˚se7159170 0.0 1014558
12:00+8˚se71488100 0.0 1015703
15:00+9˚se71385100 0.0 1015731
18:00+8˚se71484100 0.0 1016668
21:00+8˚se8158498 0.0 1016676
6 december, sun
sun600:00+8˚se81582100 0.0 1016711
03:00+7˚se81581100 0.0 1017710
06:00+7˚se91479100 0.0 1017803
09:00+6˚se91578100 0.0 1017765
12:00+6˚se91475100 0.0 10181058
15:00+5˚ese101574100 0.0 1017835
18:00+3˚se101576100 0.0 1016926
21:00+3˚se101573100 0.0 1017905